Location: Cuiabá
(15.6014°S, 56.0979°W)
Time: 21:21:22
(UTC-04:00)

Hubble Space Telescope - Pass Details

Date: 09 December 2022
Orbit: 529 x 532 km, 28.5° (Epoch: 26 January)

Event Time Altitude Azimuth Distance (km) Brightness Sun altitude
Rises 20:50:46 0° 236° (SW) 2,678 5.4 -34.0°
Reaches altitude 10° 20:53:10 10° 227° (SW) 1,786 4.2 -34.4°
Enters shadow 20:54:02 15° 221° (SW) 1,490 3.7 -34.6°
